Regional Weather Roundup
Issued by NWS

Home | Current Version | Previous Version | Graphics & Text | Print | Product List | Glossary Off
Versions: 1 2 3 4 5 6 7 8 9 10 11 12 13 14 15 16 17 18 19 20 21 22 23 24 25 26 27 28 29 30 31 32 33 34 35 36 37 38 39 40 41 42 43 44 45 46

000
ASUS43 KDMX 242307
RWRIA

WEATHER ROUNDUP FOR IOWA
NATIONAL WEATHER SERVICE DES MOINES IA
600 PM CDT THU JUL 24 2014

NOTE: "FAIR" INDICATES FEW OR NO CLOUDS BELOW 12,000 FEET WITH NO
SIGNIFICANT WEATHER AND/OR OBSTRUCTIONS TO VISIBILITY.

* - THESE STATIONS ARE NOT NWS STATIONS...THUS NOT UNDER NWS
QUALITY CONTROL.  THEY ALSO DO NOT REPORT WEATHER SUCH
AS PRECIPITATION OR FOG.

IAZ001>003-012>014-020>022-031>034-043>046-250000-
   NORTHWEST IOWA

CITY           SKY/WX    TMP DP  RH WIND       PRES   REMARKS
CARROLL *      MOSUNNY   72  63  73 E8        30.07R
CHEROKEE *     CLOUDY    66  63  88 E8        30.06F
DENISON *      SUNNY     75  63  64 SE10      30.03R
LE MARS *      MOSUNNY   72  63  73 E17G31    29.98F
ORANGE CITY *  MOSUNNY   72  61  68 SE18G29   29.93F
SHELDON *      CLOUDY    64  61  88 E9G20     29.95F
SIOUX CITY     PTSUNNY   77  63  61 E14       29.99R
SPENCER        LGT RAIN  64  59  83 SE20G26   30.00F
STORM LAKE *   DRIZZLE   64  64 100 E13G18    30.09S
$$

IAZ055>058-069>071-079>083-090>094-250000-
   SOUTHWEST IOWA

CITY           SKY/WX    TMP DP  RH WIND       PRES   REMARKS
ATLANTIC *     SUNNY     77  61  57 SE13G20   30.02R
AUDUBON *      SUNNY     75  66  73 SE9       30.05R
CLARINDA *     SUNNY     79  64  61 SE14      30.01F HX  81
COUNCIL BLFS * SUNNY     79  64  61 S18G24    29.96S HX  81
CRESTON *      SUNNY     77  63  61 SE12      30.05R
HARLAN  *      SUNNY     77  63  61 S15       30.04R
LAMONI         CLOUDY    75  59  57 SE9       30.03F
RED OAK *      SUNNY     79  61  53 SE15G23   29.99S HX  80
SHENANDOAH *   SUNNY     81  63  54 S16G23    29.98F HX  82
$$

IAZ047>049-059>061-072>074-084-250000-
   CENTRAL IOWA

CITY           SKY/WX    TMP DP  RH WIND       PRES   REMARKS
AMES           LGT RAIN  70  65  84 SW5       30.06R
ANKENY *       SUNNY     73  63  68 E5        30.06R
CHARITON *     MOSUNNY   75  63  64 SE6       30.05R
DES MOINES     LGT RAIN  74  63  68 NE7       30.06R
GRINNELL*      CLOUDY    73  63  68 SW5       30.08R
KNOXVILLE *    MOSUNNY   73  63  68 S8        30.02R
MARSHALLTOWN   CLOUDY    72  62  71 W6        30.09R
PELLA *        CLOUDY    75  63  64 S3        30.05R
PERRY *          N/A     70  66  88 E3        30.06F
$$

IAZ004>006-015-016-023>025-035-036-250000-
   NORTH CENTRAL IOWA

CITY           SKY/WX    TMP DP  RH WIND       PRES   REMARKS
ALGONA *       LGT RAIN  66  64  94 S15       30.05F
CLARION *      RAIN      66  64  94 W3        30.12R
ESTHERVILLE    CLOUDY    64  62  93 S20G35    29.96F
FORT DODGE *   CLOUDY    64  63  94 CALM      30.14R
MASON CITY     LGT RAIN  72  62  71 SW10      30.12R
FOREST CITY *  LGT RAIN  68  63  83 SE7       30.09F
IOWA FALLS *   RAIN      70  63  78 NW3       30.13R
$$

IAZ007>011-017>019-026>030-037>042-050>054-066-250000-
   NORTHEAST IOWA

CITY           SKY/WX    TMP DP  RH WIND       PRES   REMARKS
CEDAR RAPIDS   PTSUNNY   74  60  61 S9        30.06F
CHARLES CITY * PTSUNNY   75  59  57 W12       30.11R
CLINTON *      MOSUNNY   75  54  46 S5        30.11F
DECORAH *      PTSUNNY   73  61  64 CALM      30.07S
DUBUQUE        MOSUNNY   73  59  61 SW8       30.08F
MONTICELLO *   SUNNY     75  61  60 S7        30.07F
OELWEIN *      SUNNY     73  59  60 SW6       30.08F
WATERLOO       CLOUDY    75  58  55 W7        30.08R
$$

IAZ064-065-067-068-078-250000-
   EAST CENTRAL IOWA

CITY           SKY/WX    TMP DP  RH WIND       PRES   REMARKS
DAVENPORT      PTSUNNY   75  56  51 SW7       30.08F
IOWA CITY      PTSUNNY   76  59  55 S9        30.09F
MT. PLEASANT * PTSUNNY   75  55  50 CALM      30.10S
MUSCATINE *    SUNNY     77  57  50 S6        30.09S
QUAD CITIES    PTSUNNY   76  55  48 S3        30.07F
$$

IAZ062-063-075>077-085>089-095>099-250000-
   SOUTHEAST IOWA

CITY           SKY/WX    TMP DP  RH WIND       PRES   REMARKS
BURLINGTON     MOSUNNY   76  56  49 CALM      30.09S
FAIRFIELD *    SUNNY     75  59  57 S6        30.08F
FORT MADISON * CLOUDY    77  59  53 CALM      30.10S
KEOKUK *       SUNNY     75  57  53 CALM      30.09S
OSKALOOSA *      N/A     73  63  68 SE12      30.03F
CENTERVILLE *  SUNNY     73  61  64 SE10G18   30.01F
OTTUMWA        CLOUDY    73  61  65 SE10      30.03F
WASHINGTON *   SUNNY     75  61  60 S5        30.08F
$$

ABBREVIATIONS USED IN REMARKS
   TC - TEMPERATURES IN CELSIUS
  WCI - WIND CHILL INDEX
   HX - HEAT INDEX
  VSB - VISIBILITY
$$




USA.gov is the U.S. government's official web portal to all federal, state and local government web resources and services.